Regional Weather Roundup
Issued by NWS Little Rock, AR

Home | Current Version | Previous Version | Text Only | Print | Product List | Glossary On
Versions: 1 2 3 4 5 6 7 8 9 10 11 12 13 14 15 16 17 18 19 20 21 22 23 24 25 26 27 28 29 30 31 32 33 34 35 36 37 38 39 40 41 42 43 44 45 46 47 48 49 50
000
ASUS44 KLZK 301705
RWRLZK

WEATHER ROUNDUP FOR ARKANSAS
NATIONAL WEATHER SERVICE LITTLE ROCK AR
1200 PM CDT SAT APR 30 2016

NOTE: "FAIR" INDICATES FEW OR NO CLOUDS BELOW 12,000 FEET WITH NO
SIGNIFICANT WEATHER AND/OR OBSTRUCTIONS TO VISIBILITY.

ARZ001-003-010-029-301800-
NORTHWEST ARKANSAS

CITY           SKY/WX    TMP DP  RH WIND       PRES   REMARKS
FAYETTEVILLE   CLOUDY    68  64  87 SW14      29.76F
FORT SMITH     PTSUNNY   75  62  64 SW9       29.73F
HARRISON       CLOUDY    70  60  70 S9G17     29.76F
BENTONVILLE    PTSUNNY   68  63  83 W9G17     29.77S
ROGERS         CLOUDY    68  64  87 S18       29.77S
SILOAM SPGS    CLOUDY    63  55  77 NW8       29.78S
HIGHFILL       CLOUDY    66  65  96 W12       29.76S
SPRINGDALE     CLOUDY    68  64  88 SW10      29.78F
$$

ARZ004-005-016-301800-
NORTH CENTRAL ARKANSAS

CITY           SKY/WX    TMP DP  RH WIND       PRES   REMARKS
BATESVILLE     PTSUNNY   68  63  83 S5        29.80S
FLIPPIN        CLOUDY   N/A N/A N/A S5        29.73F
MTN HOME       PTSUNNY   67  61  81 SW6       29.75S
$$

ARZ040-041-301800-
WEST CENTRAL ARKANSAS

CITY           SKY/WX    TMP DP  RH WIND       PRES   REMARKS
MENA           MOSUNNY   77  66  69 SW5       29.76F
MOUNT IDA      CLOUDY    73  62  68 VRB6      29.74F
$$

ARZ009-017-025-026-028-301800-
NORTHEAST ARKANSAS

CITY           SKY/WX    TMP DP  RH WIND       PRES   REMARKS
CORNING          N/A     68  64  88 S12       29.81R
JONESBORO      CLOUDY    69  60  73 SW10      29.81R
NEWPORT        CLOUDY    70  63  78 SW9       29.82R
WALNUT RIDGE   CLOUDY    70  59  68 SW10      29.81R
BLYTHEVILLE    CLOUDY    69  62  78 S10       29.81F
$$

ARZ022-023-033-042-044-301800-
CENTRAL ARKANSAS

CITY           SKY/WX    TMP DP  RH WIND       PRES   REMARKS
LITTLE ROCK    CLOUDY    70  62  76 CALM      29.79F
N LITTLE ROCK    N/A     68  63  85 CALM      29.77F
JACKSONVILLE   CLOUDY    69  64  83 SW5       29.79S
SEARCY         CLOUDY    70  63  78 SW5       29.82R
HOT SPRINGS    CLOUDY    69  63  81 VRB3      29.78F
RUSSELLVILLE   CLOUDY    69  63  81 S5        29.77F
$$

ARZ036-301800-
EAST ARKANSAS

CITY           SKY/WX    TMP DP  RH WIND       PRES   REMARKS
WEST MEMPHIS   CLOUDY    71  58  63 W8G21     29.78S
$$

ARZ050-053-066-070-073-301800-
SOUTHWEST ARKANSAS

CITY           SKY/WX    TMP DP  RH WIND       PRES   REMARKS
ARKADELPHIA    FAIR      69  69 100 CALM      29.78F
CAMDEN         LGT RAIN  68  59  73 SE24G35   29.72F
TEXARKANA      CLOUDY    72  65  78 S3        29.74F
EL DORADO      LGT RAIN  70  62  76 SE9       29.78F
$$

ARZ056-057-069-301800-
SOUTHEAST ARKANSAS

CITY           SKY/WX    TMP DP  RH WIND       PRES   REMARKS
PINE BLUFF     CLOUDY    71  61  70 S8        29.79F
STUTTGART      CLOUDY    72  61  68 S10       29.79F
MONTICELLO     CLOUDY    72  60  66 W5        29.81R

$$





USA.gov is the U.S. government's official web portal to all federal, state and local government web resources and services.